THORAD AGENA D DEB, 5696

Orbit data source: Space-Track

THORAD AGENA D DEB, 5696 is space debris in SSO originally from a launch on Wed, 08 Apr 1970 UTC launched from the Air Force Western Test Range (AFWTR). Debris objects in space refer to the collection of defunct objects orbiting the Earth. Examples of debris include non-operational satellites, rocket bodies, and fragments generated from explosions, collisions, or faulty payload assembly.

Loading next visibility...
Identifier
5696, 1970-025MB
Orbit
SSO
Country
Flag of USUS
Related business
Manufacturer
Unknown
Mission
Spacecraft
Bus & Motor
Unknown
Mass
Unknown
Launch date (UTC)
1970-04-08 (56 years ago)
Launch vehicle
Unknown
Launch site
Air Force Western Test Range (AFWTR)
Object type
Payload
Rocket body
Debris
Shape & HBR
Unknown shape, 0.1 m
Radar Cross Section
Small (<0.1 m²)

Expand to show TLE details & history
Last TLE update: 4 hours ago

TLE from 4 hours ago
0 THORAD AGENA D DEB
1  5696U 70025MB  25298.22601895  .00000718  00000-0  10751-2 0  9991
2  5696  99.4972  42.0663 0054578  43.1774 346.7600 13.56110996734599
Epoch: 2025-10-25T05:25Z
TLE epoch observation values (Epoch: 2025-10-25T05:25:28.037Z)
Latitude
29.3931°
Longitude
-78.53949°
Altitude
1,013.962 km
Speed
7.367 km/s
True Right ascension
02h 26m 44s
True Declination
29° 15' 05"
Sunlit
Object was in full shadow at epoch
Visualization orbit readout
Latitude
Unknown
Longitude
Unknown
Altitude
Unknown
Speed
Unknown
Apparent Right ascension
Unknown
Apparent Declination
Unknown
Sunlit
N/A
Visualization observer readout
Local Sidereal Time
04:38:10
Azimuth
Unknown
Elevation
Unknown
Doppler factor
Unknown
Orbital elements
Apogee altitude
1,087.668 km
Perigee altitude
1,006.616 km
Semi-major axis
7,425.279 km
Eccentricity
0.00546
Inclination
99.4972°
RAAN
42.0663°
Arg. of periapsis
43.1774°
True anomaly
346.6158°
Mean anomaly
346.76°
Eccentric anomaly
346.688°
Mean motion
3.39214 °/min
Orbital period
106.13 mins
BSTAR
0.0010751

Documentation

Showing up to 5 results
|